Wind_Speed
40 40 40 38 37 37 38 36 36 34 32 32 30 30 31 27 25 26 23 20 23 25 23 23 21 19 18 18 18 19 20 22 24 27 30 32 34 37 39 43 47 48 46
40 39 40 37 36 34 35 35 33 33 32 31 28 28 28 27 28 29 24 23 24 25 25 24 22 20 20 20 21 21 22 24 27 31 32 34 36 39 41 44 48 50 49
38 37 38 37 34 33 33 33 33 32 31 31 30 30 31 32 31 31 27 27 26 25 27 25 24 23 22 23 23 24 25 27 31 33 34 35 38 40 45 48 51 53 53
38 37 36 35 35 34 32 33 34 34 33 31 31 31 32 31 32 30 30 28 27 28 27 27 26 26 24 25 25 27 28 30 33 35 36 38 42 44 47 50 53 55 55
38 36 34 35 35 34 33 33 32 32 32 31 30 31 32 32 32 31 29 28 28 29 28 27 28 27 26 27 29 30 31 33 34 36 39 42 45 46 50 52 55 57 57
39 36 33 34 36 34 33 31 31 32 31 30 29 30 31 31 31 30 29 28 29 30 29 29 30 29 29 30 31 33 34 35 36 38 41 45 46 49 52 54 56 58 59
41 39 36 35 36 36 35 32 32 32 30 30 30 30 31 31 30 30 30 30 31 31 30 31 33 33 31 33 35 36 36 38 38 40 43 46 49 51 54 56 58 59 62
46 42 39 38 37 36 36 34 33 33 32 31 32 31 32 32 32 31 32 32 33 33 32 34 36 36 34 35 37 39 39 39 40 43 46 50 52 54 57 58 61 62 63
48 45 43 43 40 39 35 35 33 34 32 32 33 34 34 34 34 34 35 36 35 36 36 37 37 37 36 38 40 42 42 43 45 48 50 53 56 57 60 60 63 64 65
51 49 47 45 44 42 40 35 35 35 34 33 31 34 35 35 36 36 37 37 38 38 39 38 38 38 38 41 43 46 46 47 49 51 53 55 58 59 61 63 64 64 66
54 51 50 47 46 43 42 40 37 37 36 35 32 31 32 33 35 37 37 38 38 38 38 39 39 40 41 44 47 49 50 50 52 54 56 59 60 63 63 66 68 67 68
57 53 51 49 47 46 45 42 39 40 39 37 36 35 35 36 36 37 37 38 39 40 40 40 41 43 44 47 50 52 53 54 55 57 59 62 63 65 66 69 70 70 71
62 58 56 51 49 48 46 46 44 41 42 40 40 39 39 39 39 39 39 39 40 40 41 41 43 45 47 50 53 55 56 56 58 60 62 64 66 69 69 72 72 72 74
65 62 58 56 53 50 49 47 47 43 44 44 43 42 42 41 41 40 40 41 42 44 44 45 46 48 51 54 57 58 58 60 61 63 65 67 70 71 73 74 73 74 76
63 66 63 59 56 54 53 52 49 48 46 47 46 46 45 44 42 42 43 45 46 47 48 49 50 52 54 56 58 59 62 63 65 67 68 71 72 73 75 75 74 75 78
66 60 59 58 59 56 55 56 55 52 51 50 50 49 49 47 46 46 47 48 49 50 50 52 54 56 58 58 61 62 65 67 68 70 72 74 75 75 77 76 76 79 82
70 66 59 54 54 55 56 59 60 58 56 56 54 53 52 51 51 51 52 51 52 53 55 56 57 59 60 62 61 66 68 71 73 74 76 76 77 78 77 77 79 81 84
74 67 65 60 59 54 55 57 61 63 62 60 58 57 56 55 55 55 56 55 56 58 60 61 62 64 64 63 68 70 73 75 76 77 78 79 80 78 77 80 81 84 89
76 73 68 68 60 61 63 62 62 59 60 58 57 57 57 59 60 61 61 61 61 63 65 66 67 68 66 69 71 75 77 79 80 80 80 80 79 78 80 82 86 89 93
78 77 76 74 71 68 66 69 68 66 66 65 64 64 63 62 64 64 66 65 65 67 67 68 70 68 70 73 75 79 81 82 81 82 82 79 78 81 84 88 89 95 96
83 81 78 78 79 75 64 66 69 70 70 69 68 68 68 67 67 67 69 68 69 70 72 74 72 72 75 79 79 83 84 84 85 82 79 80 84 87 90 92 95 97 99
90 87 84 82 81 80 78 75 73 69 69 69 70 70 72 73 72 71 71 72 71 71 72 73 73 76 80 83 84 84 84 85 82 81 84 88 89 90 93 97 99 101 104
98 94 92 89 85 83 81 81 78 78 79 80 78 74 69 69 70 70 71 72 74 74 76 78 80 82 83 84 86 85 84 79 81 85 88 92 93 96 98 100 102 105 108
105 102 97 94 93 90 87 85 85 85 83 82 82 81 80 78 74 73 75 76 77 80 82 83 84 85 86 87 86 85 83 84 86 86 88 94 97 100 102 106 107 109 109
108 106 103 102 98 94 92 90 89 88 87 86 85 84 82 82 81 82 83 83 83 84 85 87 87 87 86 84 83 83 85 87 88 90 91 94 98 103 106 110 112 112 111
111 111 110 108 105 102 99 96 92 90 89 88 88 88 89 88 87 86 86 84 84 85 86 87 87 87 86 85 86 88 89 91 91 96 98 98 102 104 108 110 110 110 104
Wind_Direction
229 228 232 238 243 246 249 250 252 254 256 260 266 270 269 265 266 267 275 274 273 277 272 273 276 275 273 277 286 291 299 308 314 314 316 315 319 322 328 332 334 334 333
224 227 231 237 240 244 247 250 253 255 258 262 264 266 262 264 262 264 272 272 273 271 268 269 273 270 270 277 284 295 299 308 312 313 314 314 318 324 327 328 333 334 334
225 231 232 234 238 243 247 252 255 257 259 259 261 261 260 261 261 261 262 267 266 262 264 265 268 266 269 275 285 292 296 302 308 310 312 313 318 321 327 328 330 335 335
229 233 233 236 236 241 247 251 255 258 259 260 261 257 258 257 258 259 259 259 257 256 260 264 266 265 270 277 284 288 293 299 305 309 311 314 317 320 324 327 331 334 333
226 230 232 235 236 240 245 250 252 255 257 259 260 256 256 252 257 257 256 255 253 257 261 267 265 267 271 277 281 285 291 298 304 307 310 315 317 321 324 326 330 333 334
227 230 233 235 236 240 244 249 252 254 256 256 257 253 253 254 254 255 253 252 255 257 262 265 265 268 272 277 281 285 292 298 303 306 311 313 316 320 324 327 330 333 332
230 232 236 236 237 240 246 249 251 252 255 256 255 253 251 252 254 254 252 252 255 260 264 265 266 269 275 279 283 287 294 299 303 307 311 313 315 319 323 326 329 331 331
231 231 234 236 238 243 246 248 250 251 255 256 252 251 250 253 255 255 252 253 257 262 263 264 268 271 276 281 283 289 295 299 304 307 310 312 315 320 323 325 329 329 330
234 233 234 237 240 244 247 248 250 250 253 253 251 249 250 251 253 252 253 255 259 262 262 265 270 274 279 282 286 291 295 300 303 307 310 312 316 320 322 326 328 327 327
237 235 234 238 240 245 247 252 249 252 251 255 251 248 249 249 250 250 253 257 260 261 264 267 272 277 282 285 290 292 295 299 304 307 310 314 315 318 322 324 326 324 323
236 237 237 238 240 245 247 249 253 251 250 254 252 249 247 248 249 252 256 257 260 263 266 268 273 278 283 288 293 295 298 302 307 309 311 312 314 317 320 322 323 323 322
235 237 238 238 240 242 244 247 253 248 251 250 251 250 249 249 252 255 256 258 261 265 269 273 278 284 289 293 296 296 299 303 306 309 311 313 315 317 319 321 321 322 320
237 235 236 237 240 242 245 247 252 252 250 252 252 252 253 253 255 257 258 261 265 269 273 278 282 287 291 292 294 296 298 303 306 308 310 313 314 316 318 319 320 319 318
237 238 239 239 240 244 246 247 250 254 252 253 254 254 256 257 256 258 261 262 265 268 273 277 283 287 290 292 295 296 301 304 305 308 310 312 312 315 316 318 318 317 314
234 239 240 241 242 244 246 248 250 253 254 253 254 256 257 258 260 262 262 264 267 270 274 279 282 286 291 293 296 298 302 303 306 308 309 310 311 313 314 316 315 312 311
232 235 239 241 243 243 246 246 248 251 254 255 255 256 258 260 262 264 265 268 271 273 277 280 283 288 289 292 296 298 301 303 305 306 307 307 309 312 313 313 312 310 310
232 235 235 237 238 242 244 245 247 249 251 254 255 257 259 261 264 266 268 272 275 275 277 280 284 287 288 293 294 298 300 303 304 305 305 307 308 310 311 312 309 309 310
232 233 236 238 237 238 245 247 249 251 253 254 255 257 259 262 265 268 269 272 274 277 280 282 285 286 288 290 293 297 299 301 302 302 304 306 307 309 309 309 307 308 310
232 232 235 237 237 236 237 243 249 251 251 254 258 259 260 262 264 266 270 272 275 278 280 283 285 286 288 291 294 296 298 299 300 302 304 305 306 306 306 305 306 308 311
234 234 231 237 237 240 239 240 242 246 251 255 257 259 261 264 265 267 270 274 275 277 280 282 284 284 287 291 294 295 297 298 300 301 303 304 303 304 303 305 307 309 312
233 236 235 235 238 242 239 241 243 246 251 251 253 258 261 265 266 267 269 272 274 276 278 280 282 284 287 291 293 294 296 298 299 301 301 301 302 303 304 305 308 310 311
234 235 236 238 239 242 245 245 244 246 249 255 258 260 262 261 263 266 269 272 274 276 278 279 281 284 287 289 291 294 296 298 299 300 299 301 301 302 304 306 308 309 310
233 236 236 237 238 240 243 246 245 247 250 253 257 259 262 265 267 268 271 274 276 278 278 279 282 285 287 290 291 293 295 296 296 297 300 300 302 303 304 306 307 309 311
236 235 236 239 240 240 241 244 248 250 252 255 258 260 263 265 268 269 272 275 275 276 278 280 282 285 286 289 291 293 294 293 294 295 296 299 301 303 304 305 308 309 310
238 239 239 238 238 242 244 245 248 251 253 255 258 260 263 265 267 269 271 273 275 276 278 281 283 285 288 289 289 290 290 292 294 293 295 298 301 302 304 305 306 309 309
238 240 241 241 240 240 241 243 246 249 251 255 256 258 261 263 265 267 269 271 274 276 277 279 282 283 285 286 286 287 289 290 292 293 295 298 300 302 304 304 306 306 308
Height
10920 10923 10926 10929 10931 10932 10934 10937 10938 10940 10941 10943 10944 10945 10947 10947 10947 10946 10946 10945 10944 10944 10943 10942 10942 10941 10939 10938 10936 10935 10933 10931 10929 10927 10924 10921 10918 10916 10912 10908 10903 10899 10894
10916 10919 10921 10924 10927 10929 10930 10932 10934 10936 10937 10939 10940 10941 10942 10943 10943 10943 10942 10941 10941 10941 10940 10939 10938 10937 10936 10935 10933 10932 10930 10928 10925 10922 10919 10917 10914 10911 10908 10904 10900 10894 10889
10912 10914 10917 10920 10922 10925 10927 10928 10930 10932 10933 10935 10936 10937 10938 10939 10938 10938 10939 10939 10938 10937 10936 10936 10935 10934 10932 10931 10930 10928 10926 10924 10921 10918 10915 10912 10909 10906 10902 10898 10893 10888 10884
10906 10909 10912 10915 10917 10920 10922 10924 10925 10927 10928 10929 10930 10931 10932 10933 10934 10934 10935 10935 10934 10933 10933 10932 10931 10930 10929 10927 10926 10924 10922 10920 10917 10914 10910 10907 10904 10901 10897 10892 10887 10881 10877
10900 10904 10907 10910 10912 10915 10917 10919 10920 10922 10923 10924 10925 10926 10928 10928 10929 10930 10930 10930 10930 10930 10929 10929 10928 10927 10924 10923 10921 10919 10918 10915 10913 10910 10906 10902 10898 10894 10890 10886 10880 10875 10869
10895 10899 10902 10905 10907 10909 10912 10914 10915 10917 10918 10919 10920 10921 10923 10924 10924 10925 10925 10925 10925 10925 10925 10924 10924 10922 10920 10918 10916 10914 10912 10910 10907 10904 10900 10896 10892 10888 10884 10879 10873 10868 10862
10889 10893 10897 10900 10902 10904 10907 10909 10910 10912 10913 10914 10915 10916 10917 10919 10919 10920 10920 10920 10920 10920 10920 10920 10919 10917 10915 10913 10911 10909 10906 10904 10901 10898 10895 10890 10886 10882 10877 10872 10866 10860 10854
10883 10887 10891 10895 10897 10899 10901 10903 10905 10906 10908 10909 10910 10911 10912 10913 10914 10915 10915 10915 10916 10916 10915 10914 10913 10912 10910 10908 10906 10903 10901 10898 10895 10892 10887 10883 10879 10874 10870 10864 10858 10852 10846
10878 10882 10885 10889 10891 10893 10896 10897 10899 10901 10903 10904 10905 10906 10908 10908 10909 10910 10911 10910 10911 10910 10909 10909 10908 10906 10904 10902 10900 10898 10895 10891 10888 10884 10880 10875 10870 10866 10861 10856 10850 10843 10837
10871 10875 10878 10882 10885 10888 10890 10892 10894 10896 10898 10899 10901 10902 10903 10903 10904 10905 10905 10905 10905 10904 10904 10903 10902 10900 10898 10896 10894 10891 10888 10885 10881 10877 10872 10867 10864 10858 10852 10846 10841 10835 10829
10863 10868 10872 10875 10879 10882 10884 10886 10888 10890 10892 10894 10896 10897 10898 10898 10899 10900 10899 10899 10899 10898 10898 10897 10896 10894 10892 10890 10887 10884 10881 10877 10873 10867 10863 10859 10855 10850 10844 10839 10833 10826 10820
10855 10860 10864 10868 10872 10875 10877 10879 10882 10884 10886 10888 10890 10891 10892 10893 10893 10893 10893 10894 10893 10893 10892 10890 10888 10887 10885 10883 10880 10877 10873 10869 10864 10859 10854 10849 10844 10840 10835 10829 10824 10817 10810
10845 10850 10854 10858 10863 10867 10870 10873 10875 10878 10880 10881 10884 10886 10887 10887 10887 10887 10887 10887 10887 10886 10885 10884 10882 10881 10878 10876 10873 10869 10865 10860 10855 10850 10845 10840 10835 10829 10825 10820 10813 10806 10799
10835 10841 10847 10850 10855 10859 10862 10866 10868 10871 10873 10875 10877 10879 10880 10881 10881 10881 10882 10881 10880 10879 10878 10878 10876 10873 10870 10867 10864 10860 10856 10851 10847 10841 10835 10831 10825 10820 10814 10808 10802 10795 10788
10824 10831 10838 10843 10847 10850 10854 10858 10860 10862 10864 10867 10869 10871 10872 10873 10874 10874 10874 10874 10873 10872 10871 10869 10867 10864 10861 10858 10855 10851 10847 10841 10836 10831 10826 10821 10816 10810 10804 10797 10790 10784 10777
10818 10822 10828 10836 10839 10842 10844 10848 10850 10853 10855 10858 10860 10862 10864 10865 10866 10866 10866 10866 10865 10864 10862 10860 10858 10855 10852 10849 10846 10841 10836 10831 10827 10821 10815 10811 10805 10799 10793 10786 10779 10772 10764
10809 10814 10818 10824 10828 10831 10835 10838 10840 10842 10845 10848 10850 10853 10855 10856 10857 10857 10857 10857 10856 10854 10852 10850 10848 10846 10843 10840 10836 10831 10826 10821 10816 10809 10804 10799 10793 10788 10781 10774 10768 10760 10752
10798 10803 10810 10812 10815 10819 10824 10828 10831 10833 10835 10838 10841 10843 10845 10847 10847 10847 10847 10847 10846 10844 10842 10840 10838 10835 10832 10829 10824 10820 10814 10809 10804 10798 10792 10787 10781 10775 10769 10763 10756 10749 10740
10786 10794 10799 10801 10803 10807 10811 10815 10820 10823 10826 10830 10832 10834 10835 10836 10836 10836 10836 10837 10836 10834 10831 10829 10827 10824 10821 10817 10812 10807 10802 10798 10792 10786 10780 10774 10768 10763 10757 10751 10744 10735 10727
10774 10781 10787 10789 10792 10796 10799 10802 10806 10810 10814 10819 10821 10823 10824 10825 10825 10825 10825 10827 10827 10824 10821 10818 10815 10813 10808 10805 10801 10794 10789 10784 10778 10773 10767 10760 10755 10749 10742 10735 10729 10720 10711
10761 10767 10775 10778 10781 10785 10788 10792 10796 10798 10804 10806 10809 10812 10813 10814 10814 10814 10813 10814 10814 10812 10809 10806 10804 10801 10797 10792 10790 10782 10776 10770 10763 10758 10752 10746 10740 10732 10725 10717 10712 10704 10695
10746 10753 10760 10764 10770 10775 10777 10782 10786 10789 10793 10796 10799 10801 10802 10801 10802 10801 10801 10800 10800 10798 10796 10793 10792 10790 10785 10780 10776 10772 10765 10756 10749 10740 10735 10729 10724 10718 10709 10701 10694 10687 10677
10728 10736 10743 10750 10756 10762 10765 10768 10772 10776 10780 10783 10786 10788 10789 10790 10791 10790 10789 10787 10786 10786 10782 10780 10778 10776 10773 10766 10760 10758 10754 10747 10738 10727 10716 10708 10704 10697 10692 10685 10678 10669 10659
10712 10719 10727 10736 10742 10747 10753 10755 10759 10763 10767 10770 10772 10774 10776 10778 10779 10778 10777 10775 10773 10771 10769 10765 10762 10761 10758 10753 10747 10741 10736 10732 10727 10721 10710 10695 10687 10678 10671 10663 10659 10651 10642
10700 10707 10713 10717 10723 10732 10738 10743 10747 10750 10753 10755 10757 10760 10762 10763 10763 10763 10762 10761 10759 10757 10754 10751 10747 10744 10740 10736 10731 10726 10719 10714 10708 10702 10697 10689 10676 10665 10656 10647 10639 10632 10623
10682 10688 10693 10700 10707 10713 10719 10725 10731 10735 10737 10739 10741 10744 10746 10747 10747 10747 10747 10746 10744 10741 10739 10736 10732 10729 10725 10720 10715 10709 10704 10699 10694 10684 10678 10673 10664 10651 10644 10634 10625 10617 10606